Date String (YYYY-MM-DD hh:mm:ss) UTC,Instrument flags,Ambient pressure (hPa),Sample flow (lpm),Bypass flow (lpm),Sample temperature (°C),Ambient temperature (°C),ASC tube jacket temperature (°C),LED temperature (°C),Box temperature (°C),Sample RH (%),Span deviation,Mass concentration (μg/m³),Mass concentration (μg/m³),Mass concentration (μg/m³)
DateTimeUTC,F1_M11,P_M11,Q1_M11,Q2_M11,T1_M11,T2_M11,T3_M11,T4_M11,T5_M11,U1_M11,ZSPAN_M11,X0_M11,X2_M11,X1_M11
2022-01-14 20:00:00,,0829.5,5.01,0.00,22.7,22.0,00.0,31.8,24.4,14.4,0000.0,0002.78,0001.49,0001.22
2022-01-14 20:01:00,,0829.5,4.99,0.00,22.7,22.0,00.0,31.8,24.4,14.3,0000.0,0003.06,0001.48,0001.23
2022-01-14 20:02:00,,0829.5,5.00,0.00,22.7,22.0,00.0,31.8,24.4,14.4,0000.0,0003.13,0001.48,0001.23
2022-01-14 20:03:00,,0829.5,4.99,0.00,22.7,22.0,00.0,31.8,24.4,14.5,0000.0,0003.02,0001.47,0001.22
2022-01-14 20:04:00,,0829.5,5.00,0.00,22.7,22.1,00.0,31.7,24.4,14.3,0000.0,0003.05,0001.47,0001.20
2022-01-14 20:05:00,,0829.5,4.99,0.00,22.7,22.1,00.0,31.7,24.5,14.4,0000.0,0003.05,0001.46,0001.17
2022-01-14 20:06:00,,0829.5,5.01,0.00,22.7,22.1,00.0,31.7,24.4,14.3,0000.0,0002.96,0001.41,0001.15
2022-01-14 20:07:00,,0829.5,5.00,0.00,22.7,22.1,00.0,31.7,24.4,14.2,0000.0,0003.02,0001.41,0001.13
2022-01-14 20:08:00,,0829.5,5.01,0.00,22.7,22.1,00.0,31.7,24.4,14.2,0000.0,0002.97,0001.38,0001.10
2022-01-14 20:09:00,,0829.5,4.99,0.00,22.7,22.1,00.0,31.7,24.4,14.2,0000.0,0002.92,0001.34,0001.07
2022-01-14 20:10:00,,0829.5,5.01,0.00,22.7,22.1,00.0,31.7,24.5,14.4,0000.0,0003.04,0001.34,0001.05
2022-01-14 20:11:00,,0829.5,5.00,0.00,22.7,22.1,00.0,31.7,24.5,14.3,0000.0,0002.50,0001.31,0001.03
2022-01-14 20:12:00,,0829.5,4.99,0.00,22.7,22.1,00.0,31.7,24.5,14.4,0000.0,0002.24,0001.30,0001.02
2022-01-14 20:13:00,,0829.5,5.02,0.00,22.7,22.1,00.0,31.7,24.5,14.4,0000.0,0002.18,0001.33,0001.04
2022-01-14 20:14:00,,0829.6,4.98,0.00,22.7,22.1,00.0,31.7,24.5,14.4,0000.0,0002.33,0001.37,0001.04
2022-01-14 20:15:00,,0829.6,5.01,0.00,22.7,22.1,00.0,31.7,24.4,14.2,0000.0,0002.24,0001.34,0001.05
2022-01-14 20:16:00,,0829.6,5.00,0.00,22.6,22.0,00.0,31.7,24.4,14.2,0000.0,0002.25,0001.34,0001.06
2022-01-14 20:17:00,,0829.6,5.00,0.00,22.6,22.0,00.0,31.7,24.4,14.2,0000.0,0002.35,0001.40,0001.08
2022-01-14 20:18:00,,0829.6,5.01,0.00,22.6,22.0,00.0,31.7,24.4,14.2,0000.0,0002.31,0001.39,0001.08
2022-01-14 20:19:00,,0829.6,4.99,0.00,22.6,22.0,00.0,31.7,24.4,14.2,0000.0,0002.46,0001.44,0001.09
2022-01-14 20:20:00,,0829.6,5.00,0.00,22.6,22.0,00.0,31.6,24.4,14.2,0000.0,0002.56,0001.47,0001.10
2022-01-14 20:21:00,,0829.6,5.00,0.00,22.6,22.0,00.0,31.6,24.4,14.3,0000.0,0002.47,0001.46,0001.11
2022-01-14 20:22:00,,0829.6,4.99,0.00,22.6,22.0,00.0,31.6,24.3,14.3,0000.0,0002.46,0001.46,0001.11
2022-01-14 20:23:00,,0829.6,5.01,0.00,22.6,21.9,00.0,31.6,24.3,14.3,0000.0,0002.45,0001.47,0001.11
2022-01-14 20:24:00,,0829.6,5.00,0.00,22.5,21.9,00.0,31.6,24.3,14.3,0000.0,0003.32,0001.48,0001.10
2022-01-14 20:25:00,,0829.7,4.99,0.00,22.5,21.9,00.0,31.6,24.2,14.5,0000.0,0003.87,0001.46,0001.09
2022-01-14 20:26:00,,0829.6,5.00,0.00,22.5,21.9,00.0,31.6,24.2,14.6,0000.0,0003.97,0001.48,0001.10
2022-01-14 20:27:00,,0829.6,5.01,0.00,22.5,21.8,00.0,31.6,24.2,14.6,0000.0,0004.03,0001.49,0001.10
2022-01-14 20:28:00,,0829.6,5.00,0.00,22.5,21.8,00.0,31.6,24.2,14.6,0000.0,0004.10,0001.52,0001.11
2022-01-14 20:29:00,,0829.5,5.01,0.00,22.5,21.8,00.0,31.6,24.2,14.5,0000.0,0004.39,0001.53,0001.11
2022-01-14 20:30:00,,0829.5,4.99,0.00,22.5,21.8,00.0,31.5,24.2,14.5,0000.0,0004.43,0001.52,0001.11
2022-01-14 20:31:00,,0829.5,5.01,0.00,22.4,21.8,00.0,31.5,24.2,14.6,0000.0,0004.53,0001.54,0001.12
2022-01-14 20:32:00,,0829.5,5.00,0.00,22.4,21.8,00.0,31.5,24.2,14.7,0000.0,0004.45,0001.54,0001.12
2022-01-14 20:33:00,,0829.5,5.02,0.00,22.4,21.8,00.0,31.5,24.1,14.7,0000.0,0004.36,0001.51,0001.14
2022-01-14 20:34:00,,0829.5,4.99,0.00,22.4,21.8,00.0,31.5,24.1,14.6,0000.0,0004.37,0001.52,0001.16
2022-01-14 20:35:00,,0829.5,5.00,0.00,22.4,21.8,00.0,31.5,24.1,14.5,0000.0,0003.67,0001.48,0001.17
2022-01-14 20:36:00,,0829.5,4.98,0.00,22.4,21.7,00.0,31.5,24.1,14.6,0000.0,0003.11,0001.51,0001.19
2022-01-14 20:37:00,,0829.5,5.01,0.00,22.4,21.7,00.0,31.5,24.1,14.7,0000.0,0003.41,0001.54,0001.20
2022-01-14 20:38:00,,0829.5,5.00,0.00,22.4,21.7,00.0,31.5,24.1,14.7,0000.0,0003.51,0001.55,0001.21
2022-01-14 20:39:00,,0829.5,5.01,0.00,22.3,21.7,00.0,31.4,24.1,14.6,0000.0,0003.69,0001.56,0001.22
2022-01-14 20:40:00,,0829.5,5.00,0.00,22.3,21.7,00.0,31.4,24.1,14.7,0000.0,0004.48,0001.59,0001.23
2022-01-14 20:41:00,,0829.6,4.99,0.00,22.3,21.7,00.0,31.4,24.1,14.8,0000.0,0004.57,0001.60,0001.25
2022-01-14 20:42:00,,0829.6,5.02,0.00,22.3,21.7,00.0,31.4,24.1,14.9,0000.0,0004.45,0001.60,0001.26
2022-01-14 20:43:00,,0829.6,4.99,0.00,22.3,21.7,00.0,31.4,24.1,14.9,0000.0,0004.47,0001.61,0001.26
2022-01-14 20:44:00,,0829.6,5.00,0.00,22.3,21.7,00.0,31.4,24.1,14.8,0000.0,0004.58,0001.65,0001.27
2022-01-14 20:45:00,,0829.6,5.01,0.00,22.3,21.7,00.0,31.4,24.1,14.8,0000.0,0005.96,0001.65,0001.27
2022-01-14 20:46:00,,0829.5,4.99,0.00,22.3,21.8,00.0,31.4,24.1,14.9,0000.0,0005.96,0001.64,0001.27
2022-01-14 20:47:00,,0829.5,5.02,0.00,22.3,21.8,00.0,31.4,24.1,15.1,0000.0,0005.84,0001.60,0001.26
2022-01-14 20:48:00,,0829.6,5.00,0.00,22.3,21.7,00.0,31.4,24.0,14.9,0000.0,0005.29,0001.58,0001.26
2022-01-14 20:49:00,,0829.6,4.98,0.00,22.3,21.7,00.0,31.4,24.0,15.0,0000.0,0005.28,0001.59,0001.27
2022-01-14 20:50:00,,0829.6,5.02,0.00,22.3,21.6,00.0,31.4,24.0,14.9,0000.0,0005.74,0001.56,0001.27
2022-01-14 20:51:00,,0829.6,4.99,0.00,22.2,21.6,00.0,31.4,24.0,14.9,0000.0,0005.01,0001.51,0001.27
2022-01-14 20:52:00,,0829.6,4.99,0.00,22.2,21.6,00.0,31.3,24.0,14.7,0000.0,0004.86,0001.50,0001.28
2022-01-14 20:53:00,,0829.6,5.01,0.00,22.2,21.6,00.0,31.3,24.0,15.0,0000.0,0006.05,0001.53,0001.28
2022-01-14 20:54:00,,0829.6,4.99,0.00,22.3,21.6,00.0,31.3,24.0,14.8,0000.0,0006.11,0001.55,0001.29
2022-01-14 20:55:00,,0829.6,5.01,0.00,22.2,21.7,00.0,31.3,24.0,14.8,0000.0,0006.48,0001.55,0001.29
2022-01-14 20:56:00,,0829.6,5.00,0.00,22.3,21.7,00.0,31.3,24.0,14.9,0000.0,0006.25,0001.56,0001.29
2022-01-14 20:57:00,,0829.6,4.99,0.00,22.2,21.7,00.0,31.3,24.0,14.7,0000.0,0006.15,0001.60,0001.29
2022-01-14 20:58:00,,0829.6,5.00,0.00,22.2,21.7,00.0,31.3,24.0,15.1,0000.0,0006.19,0001.62,0001.29
2022-01-14 20:59:00,,0829.5,5.02,0.00,22.2,21.6,00.0,31.3,24.0,14.9,0000.0,0006.59,0001.60,0001.29
